Location: Bittkow
(50.3000°N, 19.0000°E)
Time: 02:21:26
(UTC+00:00)

IDEFIX/ARIANE 42P - Pass Details

Date: 19 September 2020
Orbit: 785 x 802 km, 98.4° (Epoch: 30 October)

Event Time Altitude Azimuth Distance (km) Brightness Sun altitude
Rises 03:23:41 0° 6° (N) 3,326 6.1 -10.7°
Reaches altitude 10° 03:26:23 10° 353° (N) 2,392 5.2 -10.2°
Maximum altitude 03:30:34 24° 301° (WNW) 1,603 3.8 -9.6°
Enters shadow 03:34:29 11° 250° (WSW) 2,308 4.3 -9.0°
